Погода в Хутьяпе

Гватемала     14°17′25″N   89°53′44″W
темп.,
°C
ветер,
м/с
пор.,
м/с
влажн.,
%
обл.,
%
осадки,
мм/ч
давл.,
гПа
погр.,
м
27 ноября, сб
сб2700:00+15ссв388190 0.0 1016222
03:00+15ссв38755 0.0 1015210
06:00+15ссв387046 0.0 1016183
09:00+22св595317 0.0 1016866
12:00+25св57505 0.0 10141283
15:00+24св57538 0.0 10121167
18:00+18св37795 0.0 1014217
21:00+16ссв34915 0.0 101799
28 ноября, вс
вс2800:00+15ссв349063 0.0 1016104
03:00+15ссв348966 0.0 101590
06:00+15ссв33897 0.0 101664
09:00+22всв34585 0.0 1016690
12:00+26в444413 0.0 10141522
15:00+26в334384 0.0 10111410
18:00+18ссв227214 0.0 101427
21:00+16ссв367938 0.0 1017126
29 ноября, пн
пн2900:00+15ссв37922 0.0 1017157
03:00+14ссв37932 0.0 1016171
06:00+13ссв35915 0.0 1017135
09:00+22св47605 0.0 1017876
12:00+25св68425 0.0 10141452
15:00+25св56435 0.0 10121651
18:00+19св38690 0.0 1015256
21:00+16ссв37850 0.0 1017174
30 ноября, вт
вт3000:00+16ссв37882 0.0 1017200
03:00+15ссв36911 0.0 1015149
06:00+14ссв36901 0.0 1017152
09:00+22св47580 0.0 1017802
12:00+26всв56450 0.0 10141462
15:00+26всв564612 0.0 10111610
18:00+19ссв257211 0.0 1014130
21:00+17ссв35844 0.0 1017115
1 декабря, ср
ср100:00+16ссв33850 0.0 101668
03:00+15ссв33890 0.0 101563
06:00+14ссв34910 0.0 101769
09:00+23св36455 0.0 1016751
12:00+27всв453014 0.0 10141541
15:00+26всв45351 0.0 10121367
18:00+18с21700 0.0 101513
21:00+16ссв23764 0.0 101746